This demonstration page uses our WeatherBlox Daily Observations layout. Learn more.

Left ArrowRight Arrow

36.17497, -115.13722

Hourly Observations for January 17, 2020

Temp ( °F °C ) Dew Point ( °F °C ) Humidity (%) Winds ( mph kmh ) Pressure ( in mb ) Visibility ( mi km ) Precip ( " mm )
12:53 am 00:53 Cloudy 50 10 32 0 50 50 S 12 19 29.96 1015 10 16.0934 0 0
1:53 am 01:53 Mostly Clear 48 8.9 32 0 54 54 SSW 15 24 29.97 1015 10 16.0934 0 0
2:53 am 02:53 Clear 47 8.3 30 -1.1 52 52 S 8 13 29.98 1015 10 16.0934 0 0
3:32 am 03:32 Clear 50 10 24 -4.4 36 36 WSW 17 28 29.95 1014 10 16.0934 0 0
3:53 am 03:53 Clear 49 9.4 27 -2.8 43 43 NNE 7 11 30.01 1016 10 16.0934 0 0
4:53 am 04:53 Clear 44 6.7 30 -1.1 58 58 NW 7 11 30.06 1018 10 16.0934 0 0
5:53 am 05:53 Clear 43 6.1 30 -1.1 60 60 WNW 3 6 30.11 1020 10 16.0934 0 0
6:53 am 06:53 Sunny 45 7.2 27 -2.8 49 49 VRB 7 11 30.16 1021 10 16.0934 0 0
7:53 am 07:53 Sunny 48 8.9 26 -3.3 42 42 NW 16 26 30.19 1022 10 16.0934 0 0
8:53 am 08:53 Sunny 51 10.6 26 -3.3 38 38 NW 18 30 30.22 1024 10 16.0934 0 0
9:53 am 09:53 Sunny 54 12.2 20 -6.7 26 26 NNW 15 24 30.27 1025 10 16.0934 0 0
10:53 am 10:53 Sunny 56 13.3 14 -10 19 19 NNW 13 20 30.29 1026 10 16.0934 0 0
11:53 am 11:53 Sunny 56 13.3 13 -10.6 18 18 NNW 15 24 30.28 1025 10 16.0934 0 0
12:53 pm 12:53 Sunny 57 13.9 12 -11.1 17 17 NNW 12 19 30.25 1024 10 16.0934 0 0
1:53 pm 13:53 Sunny 58 14.4 10 -12.2 15 15 N 10 17 30.25 1024 10 16.0934 0 0
2:53 pm 14:53 Sunny 57 13.9 18 -7.8 22 22 VRB 5 7 30.26 1025 10 16.0934 0 0
3:53 pm 15:53 Sunny 57 13.9 15 -9.4 19 19 E 8 13 30.26 1025 10 16.0934 0 0
4:53 pm 16:53 Clear 54 12.2 12 -11.1 19 19 E 3 6 30.29 1026 10 16.0934 0 0
5:53 pm 17:53 Clear 52 11.1 11 -11.7 19 19 Calm 30.31 1027 10 16.0934 0 0
6:53 pm 18:53 Clear 51 10.6 13 -10.6 22 22 Calm 30.33 1027 10 16.0934 0 0
7:53 pm 19:53 Clear 49 9.4 16 -8.9 27 27 WNW 3 6 30.33 1027 10 16.0934 0 0
8:53 pm 20:53 Clear 46 7.8 18 -7.8 32 32 WNW 7 11 30.34 1028 10 16.0934 0 0
9:53 pm 21:53 Clear 45 7.2 19 -7.2 35 35 W 3 6 30.35 1028 10 16.0934 0 0
10:53 pm 22:53 Clear 42 5.6 19 -7.2 40 40 W 5 7 30.37 1028 10 16.0934 0 0
11:53 pm 23:53 Clear 42 5.6 18 -7.8 38 38 Calm 30.38 1029 10 16.0934 0 0

Powered by AerisWeather